Retour au catalogue

FENGYUN 1C DEB

ActifSSO
NORAD 36733·DEBRIS·🇨🇳 China

Lancé May 10, 1999 depuis Taiyuan Satellite Launch Center

Loading…

Prochains Passages (prochaines 24 heures)

TLE

VieillissantSource: Space-Track

Époque: Sep 8, 2026, 11:03 UTC

1 36733U 99025EBF 26251.46054377  .00002167  00000-0  11571-2 0  9992
2 36733  99.3255 251.9695 0126165  96.8154 264.7388 14.10358713691386

Suivez FENGYUN 1C DEB en temps réel avec AllMySat

Download on the App Store